Regional Weather Roundup
Issued by NWS

Home | Current Version | Previous Version | Text Only | Print | Product List | Glossary On
Versions: 1 2 3 4 5 6 7 8 9 10 11 12 13 14 15 16 17 18 19 20 21 22 23 24 25 26 27 28 29 30 31 32 33 34 35 36 37 38 39 40 41 42 43 44 45 46 47 48 49 50
000
ASUS46 KPQR 260510
RWROR

OREGON REGIONAL WEATHER ROUNDUP
NATIONAL WEATHER SERVICE PORTLAND OR
1000 PM PDT FRI JUL 25 2014

NOTE: "FAIR" INDICATES FEW OR NO CLOUDS BELOW 12,000 FEET WITH
NO SIGNIFICANT WEATHER AND/OR OBSTRUCTIONS TO VISIBILITY.

ORZ001>013-260600-
NORTHWEST OREGON


CITY           SKY/WX    TMP DP  RH WIND       PRES   REMARKS
ASTORIA        CLEAR     60  54  80 NW10      30.12R
NEWPORT        CLEAR     55  54  94 N5        30.14R
PORTLAND       CLEAR     69  56  62 NW8       30.07R
VANCOUVER WA   CLEAR     69  54  58 N3        30.07R
SCAPPOOSE      CLEAR     66  54  65 VRB3      30.07R
HILLSBORO      CLEAR     65  54  67 NW9       30.07R
AURORA         CLEAR     67  54  63 N7        30.07R
MCMINNVILLE    CLEAR     66  55  67 CALM      30.08R
SALEM          CLEAR     68  54  60 NW7       30.06R
CORVALLIS      CLEAR     64  54  68 NW14      30.08R
EUGENE         CLEAR     64  55  72 N7        30.06R
$$

ORZ021-028-260600-
SOUTHWEST OREGON


CITY           SKY/WX    TMP DP  RH WIND       PRES   REMARKS
NORTH BEND     CLEAR     59  57  94 N12       30.11R
BROOKINGS      CLEAR     58  53  83 VRB3      30.01R
ROSEBURG       CLEAR     73  54  51 N7        30.04R
SEXTON SUMMIT  CLEAR     60  45  57 N12       30.13R
MEDFORD        CLEAR     74  44  34 NE5       30.01R
$$

ORZ009-041-260600-
COLUMBIA GORGE


CITY           SKY/WX    TMP DP  RH WIND       PRES   REMARKS
TROUTDALE      CLEAR     70  56  61 VRB5      30.05R
THE DALLES     CLEAR     71  53  52 N9        30.00R
$$

ORZ029>031-042>050-061>064-260600-
EASTERN OREGON


CITY           SKY/WX    TMP DP  RH WIND       PRES   REMARKS
REDMOND        CLEAR     69  45  41 NW12      30.09R
BEND           CLEAR     68  46  45 NW8       30.12R
KLAMATH FALLS  CLEAR     70  42  36 NW14      30.10R
LAKEVIEW       CLEAR     61  28  29 NW9       30.13R
HERMISTON      CLEAR     61  46  57 E6        29.99R
PENDLETON      CLEAR     70  33  25 CALM      30.03R
JOHN DAY       CLEAR     69  38  32 N6        30.10R
MEACHAM        CLEAR     52  45  77 CALM      30.15R
LA GRANDE      CLEAR     63  36  36 N7        30.08R
BAKER CITY     CLEAR     59  39  47 W8        30.11R
BURNS          CLEAR     68  30  24 N8        30.09R
ROME             N/A     72  29  20 NE9       30.06R
ONTARIO        CLEAR     64  48  56 CALM      29.99R
$$


USA.gov is the U.S. government's official web portal to all federal, state and local government web resources and services.